{"data":{"norad_id":58786,"intl_designator":"2024-011X","name":"STARLINK-31024","alt_names":[],"object_type":"PAYLOAD","status":"ACTIVE","operator":null,"country":"US","launch_date":"2024-01-14","launch_site_code":"AFWTR","launch_vehicle":null,"mission":null,"orbit_class":"UNKNOWN","rcs_meters":null,"size_class":null,"mass_kg":null,"dimensions":null,"purposes":["comms"],"wikipedia_slug":null,"has_3d_model":false,"image_url":null,"decayed_at":null,"tle_current":{"epoch":"2026-09-20T11:50:19.550976Z","epoch_age_seconds":153092,"freshness":"FRESH","line1":"1 58786U 24011X   26263.49328184 -.00000303  00000+0  21651-5 0  9996","line2":"2 58786  53.1598 185.4360 0001472  93.0043 267.1128 15.34383220150146","mean_motion":15.3438322,"eccentricity":0.0001472,"inclination_deg":53.1598,"raan_deg":185.436,"arg_perigee_deg":93.0043,"mean_anomaly_deg":267.1128,"bstar":2.1651e-6,"rev_number":15014,"period_min":93.848784399506,"perigee_km":461.74613533301,"apogee_km":463.76009338268,"semimajor_km":6840.8901143578,"source":"CELESTRAK","updated_at":"2026-09-21T09:00:33.978516Z"}}}